Погода Павловский Посад

Погода Павловский Посад : погода сейчас, прогноз погоды и архив. Всё, что Вы хотите узнать о погоде Павловский Посад!

Хотите узнать прогноз погоды Павловский Посад? Тогда Вам сюда: Погода Павловский Посад

Поиск расширенной информации на нашем сайте:

Другие новости

Новости СМИ2

Главная страница сайта

Новости сайта

03.07.2017

Напоминаем, что на нашем специализированном сайте Метеоцентр.Азия вы можете получить высокодетализированные автоматические прогнозы погоды по пунктам России, СНГ и мира в авиационном формате (включающие направление и скорость ветра, видимость, явления погоды, количество и форму облачности, нижнюю и верхнюю границу облачности).


Погода Павловский Посад - сегодня

Время (UTC), дата Ветер
(°,м/с) 
Видим.   Явления Облачность Т
(°С)
Тd
(°С)
f(%) Тe
(°С)
Pmin
(гПа)
dP
(гПа)
Po
(мм)
O2
(г/м3)
Тmin Tmax R s Состояние
почвы
12 20.10.17 300 (СЗ) 10 км    10/8 600 м средняя 
[Cu Sc|Ac und]
+6.2 +0 64 +5  1020.7  -0.3  753  297           
15 20.10.17 290 (З) 10 км    9/0 средняя 
[Ac As]
+4 +0.2 76 +5  1020.8  753  299           
18 20.10.17 240 (ЮЗ) 10 км    10/10 600 м 
[Sc]
+4 -0.7 71 +5  1020.8  753  299    +6.5       
21 20.10.17 200 (Ю) 10 км    10/10 600 м 
[Sc]
+2.4 +1.2 92 +3  1020.7  -0.3  753  301           
00 21.10.17 190 (Ю) 10 км    10/10 600 м 
[Sc]
+2.3 +1.4 94 +3  1019.8  -0.8  752  300           
03 21.10.17 220 (ЮЗ) 10 км    10/0 средняя 
[Ac und]
+1.1 +0.4 95 +2  1019.5  -0.4  752  302  +1.1         
06 21.10.17 310 (СЗ) 10 км  слаб. ливневой дождь  10/10 600 м кучево-дожд. 
[Cb cap]
+2.2 +1 92 +2  1019.4  752  300  +1.1    0.1     
09 21.10.17 310 (СЗ) 10 км  {ливн. осадки}  9/8 600 м кучево-дожд., средняя 
[Cb cap|Ac As]
+2.9 -0.9 76 +2  1019.5  0.2  752  300           
12 21.10.17 310 (СЗ) 10 км  в посл. час крупа{ливн. осадки}  9/8 600 м кучево-дожд., средняя 
[Cb cap|Ac As]
+2.1 -0.9 81 +1  1018.8  -0.8  752  301           
15 21.10.17 330 (СЗ) 10 км    9/6 600 м кучево-дожд., средняя 
[Cb cap|Ac As]
+1.8 -1.7 78 +3  1018.9  0.1  752  301      0.5     
18 21.10.17 310 (СЗ) 10 км    3/0 средняя 
[Ac As]
-0.1 -2.5 84 -1  1019  752  303    +4.6  0.4     
21 21.10.17 320 (СЗ) 10 км    9/0 средняя 
[Ac As]
-0.4 -1.9 90 1019.1  0.1  752  304           
00 22.10.17 340 (С) 10 км    10/0 средняя 
[Ac und]
-1.1 -3.3 85 -2  1019.1  0.1  752  304           
03 22.10.17 340 (С) 10 км    10/0 средняя 
[Ac und]
-1.6 -3.5 87 -3  1019.2  0.1  752  305  -1.6         
06 22.10.17 280 (З) 10 км    8/0 средняя 
[Ac As]
-2.1 -4.1 86 -3  1019.3  0.1  752  306  -2.3        замёрзшая 
09 22.10.17 290 (З) 10 км    3/3 600 м 
[Cu hum]
+0.8 -4.4 68 1019  -0.2  752  302           
12 22.10.17 250 (З) 10 км    6/3 600 м средняя 
[Cu hum|Ac trans]
+2.4 -5.1 58 +2  1017.8  -1  751  300           
15 22.10.17 220 (ЮЗ) 10 км    9/9 600 м 
[Sc]
+1.1 -5.2 63 +2  1017.6  -0.3  751  302           
18 22.10.17 200 (Ю) 10 км    9/0 средняя 
[Ac As]
-1.3 -5.2 75 -2  1017.4  -0.4  750  304    +2.8       
21 22.10.17 220 (ЮЗ) 10 км    10/10 600 м 
[Sc]
-0.5 -3.5 80 -1  1017.1  -0.2  750  303           
00 23.10.17 210 (ЮЗ) 4000 м  слаб. ливневой снег  10/10 600 м кучево-дожд. 
[Cb cap]
-0.8 -2 92 1016.7  -0.4  750  303           
03 23.10.17 220 (ЮЗ) 4000 м  слаб. ливневой снег  10/10 300 м кучево-дожд. 
[Cb cap]
-0.9 -1.8 94 1016.6  -0.1  750  303  -1.8    0.6     
06 23.10.17 280 (З) 10 км  {ливн. осадки}  4/3 600 м кучево-дожд., средняя 
[Cb cap|Ac As]
+0.7 -1.2 87 1017.6  1.1  751  302  -1.4    0.9  равномерный
мокрый или
старый снег
100% 
09 23.10.17 310 (СЗ) 10 км    9/8 600 м кучево-дожд., средняя 
[Cb cap|Ac As]
+1.5 -1.9 78 1019.3  1.6  752  301           
12 23.10.17 310 (СЗ) 10 км  в посл. час крупа{ливн. осадки}  9/8 600 м кучево-дожд., средняя 
[Cb cap|Ac As]
+1 -2.4 78 -1  1021.4  753  303           
Время (UTC), дата Ветер
(°,м/с) 
Видим.   Явления Облачность Т
(°С)
Тd
(°С)
f(%) Тe
(°С)
Pmin
(гПа)
dP
(гПа)
Po
(мм)
O2
(г/м3)
Тmin Tmax R s Состояние
почвы

Для получения пояснительной информации подведите курсор к названию столбца.

ПОГОДА Павловский Посад - архив

Всё, что Вы хотите узнать о погоде Павловский Посад - удобно и подробно!

Выберите нужную дату (начиная с 1 января 2015* года) и нажмите кнопку "Найти".
Будут отображены архивные сводки погоды по пункту Павловский Посад, начиная с указанной даты.


Отображать данные в формате CSV (для использования в таблицах Excel)


Внимание! Наш архив погоды предназначен исключительно для личного некоммерческого использования в познавательных целях. Если Вам необходимы официальные справки о состоянии погоды (для производственных, юридических, коммерческих и т.п. целей), обращайтесь в органы Росгидромета.

*Примечание: данная дата относится к архиву по метеостанциям СССР (Россия, СНГ, Балтия).
Архив по метеостанциям Зарубежной Европы и Азии (кроме Китая) хранится 10 дней, по другим регионам земного шара (Китай, Африка, Америка, Австралия, Океания) - 1 день.

Павловский Посад - район местоположения метеостанции


Название, широта, долгота, высота метеостанции:
Павловский Посад 55.8°ш. 38.7°д. 135 м над ур. моря [Российская Федерация]

Дополнительная информация

В oтличие oт бoльшинства пoгoдных сайтoв мы публикуем пoдрoбную метеoинфoрмацию в детальнoм прoфессиoнальнoм фoрмате.

Характеристики температуры и влажнoсти вoздуха измеряются на высoте 2 м в тени вдали oт зданий и деревьев.
Скoрoсть ветра измеряется на высoте 10 м (на урoвне рoста челoвека скoрoсть ветра ниже в 1.5-2 раза). Если метеoстанция нахoдится в гoрoде или в лесу, тo скoрoсть ветра занижена на 2-4 м/с пo сравнению с oткрытым местoм. Скoрoсть ветра над акватoриями крупных рек и oзёр, а также на вершинах хoлмoв на 2-5 м/с выше, чем в oбычных услoвиях.
Атмoсфернoе давление в разных тoчках местнoсти мoжет значительнo oтличаться oт давления на метеoстанции, в зависимoсти oт услoвий рельефа (при пoдъёме на 10 м давление пoнижается примернo на 1 мм рт.ст.).